Hourly Data Report for June 09, 2012

All times are specified in Local Standard Time (LST). Add 1 hour to adjust for Daylight Saving Time where and when it is observed.

MONCTON INTL A
NEW BRUNSWICK

46°06'44.000" N
64°40'43.000" W
70.70 m
8103201
71705
YQM

Download Data

Hourly Data (June 2012)
Hourly Data Report for June 9, 2012
Temp Definition
°C
Dew Point Temp Definition
°C
Rel Hum Definition
%
Wind Dir Definition
10's deg

Wind Spd Definition
km/h
Visibility Definition
km
Stn Press Definition
kPa
Hmdx Definition


Wind Chill Definition


Weather Definition


TIME
00:00 Legend Double Dagger 9.0 7.8 92 14 14 10.0 99.91     LegendNANA
01:00 Legend Double Dagger 8.9 7.7 92 16 10 10.0 99.92     LegendNANA
02:00 Legend Double Dagger 9.6 8.1 90 16 8 10.0 99.88     Mainly Clear
03:00 Legend Double Dagger 9.9 8.7 92 20 10 10.0 99.89     LegendNANA
04:00 Legend Double Dagger 10.1 8.9 92 17 8 10.0 99.84     LegendNANA
05:00 Legend Double Dagger 10.0 8.8 92 20 9 10.0 99.85     Mostly Cloudy
06:00 Legend Double Dagger 10.9 9.8 93 17 10 10.0 99.86     LegendNANA
07:00 Legend Double Dagger 11.6 10.0 90 18 9 10.0 99.86     LegendNANA
08:00 Legend Double Dagger 10.9 10.1 95 15 10 10.0 99.88     Rain Showers
09:00 Legend Double Dagger 11.5 10.7 95 14 13 10.0 99.88     Rain Showers
10:00 Legend Double Dagger 11.7 10.9 95 16 7 10.0 99.86     Rain Showers
11:00 Legend Double Dagger 12.4 11.6 95 13 5 9.7 99.88     Rain Showers,Fog
12:00 Legend Double Dagger 12.1 11.6 97 13 8 10.0 99.89     Rain Showers
13:00 Legend Double Dagger 12.1 11.3 95 17 6 8.1 99.86     Rain Showers,Fog
14:00 Legend Double Dagger 13.0 12.4 96 33 8 10.0 99.81     Rain Showers
15:00 Legend Double Dagger 13.6 12.8 95 33 8 10.0 99.81     Rain Showers
16:00 Legend Double Dagger 13.6 12.7 94 33 12 10.0 99.84     Rain Showers
17:00 Legend Double Dagger 13.9 12.8 93 32 11 10.0 99.82     Rain Showers
18:00 Legend Double Dagger 14.3 13.0 92 32 14 10.0 99.84     LegendNANA
19:00 Legend Double Dagger 14.0 12.2 89 31 9 10.0 99.87     LegendNANA
20:00 Legend Double Dagger 13.2 12.6 96 32 9 10.0 99.90     Mostly Cloudy
21:00 Legend Double Dagger 12.8 12.2 96 26 7 10.0 99.96     Rain Showers
22:00 Legend Double Dagger 12.3 11.4 94 29 13 10.0 99.99     LegendNANA
23:00 Legend Double Dagger 12.0 11.5 97 28 9 10.0 100.02     Rain Showers

Notes on Data Quality.

Legend

  • E = Estimated
  • M = Missing
  • NA = Not Available
  • ‡ = Partner data that is not subject to review by the National Climate Archives
Date modified: